Location: Unspecified
(48.8656°N, 0.0000°E)
Time: 17:16:41
(UTC+00:00)

Vanguard 1 - Pass Details

Date: 25 June 2019
Orbit: 653 x 3830 km, 34.3° (Epoch: 20 July)

Event Time Altitude Azimuth Distance (km) Brightness Sun altitude
Rises 23:40:26 0° 201° (SSW) 7,960 - -17.6°
Reaches altitude 10° 23:47:55 10° 190° (S) 6,841 - -17.7°
Exits shadow 23:56:34 20° 169° (S) 5,673 13.3 -17.7°
Maximum altitude 00:02:37 23° 148° (SSE) 5,104 13.2 -17.7°
Drops below altitude 10° 00:13:52 10° 104° (ESE) 5,197 13.6 -17.7°
Sets 00:18:21 0° 90° (E) 5,730 14.0 -17.6°
